STARLINK-11181, 60059

Orbit data source: Space-Track

STARLINK-11181, 60059 is a payload satellite owned by SpaceX/Seattle (US) in LEO that was launched on Wed, 19 Jun 2024 UTC via an FALCON 9 launch vehicle from the Air Force Western Test Range (AFWTR). Payload-class satellites include a variety of spacecraft equipped with specific instruments for various scientific and technological missions. These include communications satellites like Starlink; space stations such as the ISS; scientific satellites like the Hubble; Earth observation satellites from companies like Planet Labs, Umbra, and HawkEye 360; GPS; miniature CubeSats for education and research; and military/defense satellites.

Loading next visibility...
Identifier
60059, 2024-113A
Orbit
LEO
Last TLE update
20 hours ago
Origin
Manufacturer
SpaceX/Seattle
Mission
Operational Commercial Communications
Bus & Motor
STARLINK V2M, Unknown motor
Mass
730 kg wet, ~700 kg dry
Launch date (UTC)
2024-06-19 (11 months ago)
Launch vehicle
FALCON 9
Launch site
Air Force Western Test Range (AFWTR)
Object type
Payload
Rocket body
Debris
Shape & HBR
Box + 2 Pan, 29 m
Radar Cross Section
36.964 m², Large (>1 m²)

Expand to show TLE details & history

TLE from 20 hours ago
0 STARLINK-11181
1 60059U 24113A   25131.03257061 -.00002348  00000-0 -14536-4 0  9999
2 60059  53.1585 243.3369 0000944  87.4849 272.6277 15.69703987 52449
Epoch: 2025-05-11T00:46Z
Definitive object data (Epoch: 2025-05-11T00:46:54.1Z)
Latitude
-0.00003°
Longitude
2.54563°
Altitude
360.63 km
Speed
7.694 km/s
True Right ascension
16h 13m 20s
True Declination
0° 00' 00"
Sunlit
Object was in full shadow at TLE epoch
Visualization TLE readout
Latitude
-10.38753°
Longitude
-9.37399°
Altitude
362.736 km
Speed
7.692 km/s
Apparent Right ascension
16h 03m 20s
Apparent Declination
-25° 00' 11"
Sunlit
Object is in full shadow
Visualization observer readout
Local Sidereal Time
04:54:32
Azimuth
39.576° NE
Elevation
-71.631°
Doppler factor
1
Orbital elements
Apogee altitude
360.641 km
Perigee altitude
359.369 km
Semi-major axis
6,738.142 km
Eccentricity
0.0000944
Inclination
53.1585°
RAAN
243.3369°
Arg. of periapsis
87.4849°
True anomaly
272.61689°
Mean anomaly
272.6277°
Eccentric anomaly
272.6223°
Mean motion
3.92404 °/min
BSTAR
-0.000014536
Orbital period
91.74 mins
Loading maneuver chart data...
Loading SW <> Apogee altitude chart data...
Loading historical data...
Loading historical data...
Loading historical data...
Loading historical data...
Loading historical data...
Loading historical data...
Loading historical data...

STARLINK-11181 Visibility forecast

Observer location: undefined°, undefined°

Span
Click to sort rows by Start time (UTC) header in descending order
Start Az.
Max El. time (UTC)
Max El. Az.
Max El.
End time (UTC)
End Az.
4 mins2025-05-12 10:37:29.877Z273.365° WNW2025-05-12 10:39:29.877Z347.388° N27.227°2025-05-12 10:41:29.877Z31.373° NE
4 mins2025-05-12 17:02:29.877Z284.15° WNW2025-05-12 17:03:29.877Z239.761° WSW36.724°2025-05-12 17:06:29.877Z147.68° SSE
|